Weather in Morsha

Russia / Samara Oblast     52°24′12″N   50°45′10″E
temp.,
°C
wind,
m/s
gust,
m/s
humid.,
%
clouds,
%
prec.,
mm/h
press.,
hPa
HPBL,
m
12 may, wed
wed1201:00+17ne2364100 0.0 102572
04:00+17e51059100 0.0 1025238
07:00+16e495484 0.0 1025209
10:00+19ese61146100 0.0 1025535
13:00+23se7942100 0.0 10251574
16:00+22se694876 0.0 10251207
19:00+21ese6104749 0.0 1025513
22:00+17e5115597 0.0 1024219
13 may, thu
thu1301:00+16e4115641 0.0 1024217
04:00+16ese51353100 0.0 1024264
07:00+17se61451100 0.0 1024359
10:00+21ese694799 0.1 1024335
13:00+26se8103295 0.0 10231419
16:00+27se911295 0.0 10231733
19:00+24sse6123999 0.0 1023409
22:00+20se5144575 0.0 1023302
14 may, fri
fri1401:00+19se6144694 0.0 1023281
04:00+16sse4135221 0.2 1024220
07:00+19sse511495 0.1 1024284
10:00+25sse710325 0.1 1024624
13:00+28s892526 0.1 10241478
16:00+27s792666 0.1 10241501
19:00+24sse59375 0.0 1023247
22:00+20sse48435 0.0 1023117
15 may, sat
sat1501:00+18sse494299 0.0 1023122
04:00+17sse49486 0.0 1023122
07:00+19sse49485 0.0 1024213
10:00+26sse68300 0.0 1023570
13:00+29s67240 0.0 10232183
16:00+30s56220 0.0 10212755
19:00+27s35360 0.0 102091
22:00+22s33470 0.0 102141
16 may, sun
sun1601:00+21sse33450 0.0 102031
04:00+19sse46480 0.0 102083
07:00+22se49514 0.0 1020230
10:00+28sse68333 0.0 1020745
13:00+31s67245 0.0 10193560
16:00+31s66235 0.0 10183309
19:00+27ssw363721 0.0 1017113
22:00+23s3443100 0.0 101745